Wind_Speed
2 1 2 5 5 6 6 6 6 2 2 3 3 3 5 5 5 5 4 5 1 3 4 2 2 7 8 10 11 10 8 7 6 7 7 7 7 8 9 9 10 10 8 13 22 25 28 28 29 30 31 31 31 29 28 29 30 30 29 28 28 28 28 29 29 29 28 27 25 25 24 24 23 22 22 21 20 19 19 18 19 20 21 21 22 22
3 0 6 7 7 6 4 4 4 2 2 0 3 4 4 4 6 6 2 4 2 3 3 2 6 6 7 7 9 9 8 8 6 6 7 8 8 7 10 11 9 8 8 14 20 23 26 28 29 30 30 30 30 29 29 29 30 29 29 27 26 27 29 29 29 28 28 26 23 23 23 24 24 23 23 23 22 21 20 19 19 21 21 22 22 22
4 3 8 7 4 2 2 3 4 3 3 1 1 1 4 3 4 5 2 4 1 2 3 1 6 4 6 6 8 9 7 5 6 7 6 7 9 8 8 9 9 9 9 11 14 18 24 26 28 30 29 30 30 30 29 29 28 29 28 27 26 28 28 29 28 28 27 24 22 22 22 23 22 22 23 23 22 23 23 22 22 22 23 24 24 23
3 4 5 2 3 3 2 3 4 2 1 1 2 2 5 3 1 3 3 3 1 1 2 3 5 2 4 6 7 8 6 5 8 9 8 7 8 7 7 8 9 11 11 10 10 14 21 25 26 27 27 28 29 29 29 28 27 28 28 27 27 28 28 28 28 28 27 25 25 24 23 23 22 23 24 25 25 26 26 25 24 24 24 24 23 23
5 5 1 3 3 2 1 3 2 1 3 3 4 5 5 3 3 5 3 3 3 2 2 5 3 2 3 5 5 6 6 7 7 8 10 8 6 7 8 8 8 10 9 9 8 11 19 22 23 25 25 27 28 27 26 27 27 26 27 27 27 27 27 27 29 30 29 28 28 28 27 27 26 25 26 27 28 28 27 26 25 25 24 23 22 22
6 4 0 2 4 4 0 4 3 5 3 4 4 6 6 4 3 3 3 4 3 3 1 4 1 3 3 4 4 5 5 7 6 8 9 7 7 8 9 9 8 8 8 9 10 12 17 20 22 24 25 26 26 25 25 25 26 27 27 27 28 27 27 29 30 31 31 28 27 28 27 26 26 24 23 24 26 27 27 28 28 28 26 25 24 23
2 2 3 2 3 4 2 3 4 4 2 4 3 3 3 2 1 1 3 2 1 2 2 2 1 3 1 1 2 3 5 6 6 7 8 6 7 7 7 7 7 8 7 9 11 14 16 18 20 22 23 24 24 23 25 26 27 27 27 28 29 28 28 30 31 31 30 27 26 26 24 22 22 21 22 25 26 27 28 29 30 29 28 27 26 25
1 3 5 4 4 4 3 3 3 5 4 3 3 2 3 2 1 2 1 2 3 2 3 1 2 2 3 2 1 1 5 6 6 7 7 6 7 7 6 6 7 7 6 7 8 11 15 17 19 20 21 23 23 24 27 27 27 28 29 29 29 29 29 30 31 30 29 26 25 25 23 21 21 22 25 27 27 27 27 27 27 27 28 28 27 26
1 1 2 2 3 2 2 3 3 4 1 4 3 2 1 1 2 4 4 3 1 2 4 3 4 1 4 2 2 1 4 5 3 4 5 5 6 6 7 6 6 6 6 8 8 10 15 17 19 19 21 23 25 26 27 27 27 29 30 29 30 31 31 31 30 29 27 26 25 23 23 24 25 26 26 26 26 27 28 28 28 28 28 28 28 26
1 2 3 2 1 3 4 4 3 4 2 3 3 1 1 3 2 2 3 3 2 1 4 5 4 3 3 3 4 2 3 4 3 3 3 4 5 5 6 6 6 6 5 7 11 13 16 18 18 19 21 23 24 25 26 28 30 32 32 30 31 32 31 29 28 27 26 24 22 23 26 28 28 27 26 26 27 28 28 28 28 28 29 30 28 26
3 1 2 2 2 3 2 2 3 4 2 0 2 2 3 4 3 3 2 3 3 3 6 5 3 3 1 4 6 3 3 6 5 4 3 4 5 5 5 5 5 5 5 6 9 14 16 17 18 19 20 21 23 26 30 32 33 32 29 27 29 30 27 26 25 25 24 21 22 26 29 27 25 26 26 27 28 29 28 27 28 29 30 28 26 25
6 3 0 1 1 1 1 2 1 0 1 2 2 3 4 4 3 4 4 3 2 4 5 4 1 3 2 3 3 2 4 7 5 5 6 5 5 4 4 5 5 5 5 5 6 10 13 14 16 18 19 21 25 28 31 32 32 28 23 25 31 30 26 25 25 23 21 22 27 31 29 25 24 25 25 25 26 27 27 27 29 29 28 27 26 26
5 1 2 3 2 2 2 3 4 4 4 4 3 4 4 5 4 3 4 1 2 4 3 2 2 1 3 1 0 3 7 7 5 5 6 5 5 4 5 5 5 4 5 5 5 7 11 12 14 16 17 18 21 22 24 28 29 23 20 26 31 28 25 26 23 21 22 28 33 31 25 24 24 23 22 23 23 26 28 29 28 27 26 26 25 25
5 4 4 4 2 2 2 3 5 4 3 4 2 2 2 2 3 4 4 2 4 4 3 2 2 1 2 2 2 3 6 6 6 6 6 6 5 4 4 4 4 5 5 5 5 7 10 11 12 13 14 14 15 16 20 27 27 20 21 28 28 24 26 26 22 21 27 33 32 26 22 22 21 20 21 23 25 29 30 27 24 24 25 24 23 28
3 4 3 3 2 2 3 1 1 2 2 3 1 3 2 2 1 4 4 3 5 4 4 3 1 2 1 2 3 2 5 5 6 5 5 5 4 3 4 4 4 5 5 5 6 8 10 11 11 11 12 13 13 15 21 28 26 19 22 27 25 23 26 25 22 25 30 31 27 23 21 20 17 18 23 29 31 31 28 23 22 24 23 22 25 33
0 4 5 2 1 2 3 2 1 2 3 1 1 3 1 3 3 2 3 3 3 3 4 2 1 0 0 1 3 4 5 5 5 4 5 4 3 3 4 4 4 5 5 4 5 8 10 11 11 11 12 12 13 17 24 28 23 17 22 26 23 22 24 23 22 25 28 27 24 22 20 16 15 20 28 35 36 31 24 22 23 24 22 22 27 32
2 5 7 4 3 2 1 2 1 3 2 1 1 1 3 3 4 1 3 1 2 2 3 1 2 1 1 1 1 4 5 5 4 3 4 4 4 4 4 4 4 4 4 4 5 7 9 9 10 11 12 12 15 18 23 26 20 16 22 24 20 19 20 21 22 24 26 24 22 21 17 15 17 24 32 37 36 28 23 23 23 22 23 24 26 28
1 6 7 4 3 2 2 2 2 3 1 1 1 3 3 1 3 2 1 4 3 2 4 1 2 2 1 1 2 5 7 5 4 4 5 5 6 5 4 4 3 4 4 4 7 8 8 9 9 11 12 13 16 18 21 23 17 16 20 18 16 17 19 21 22 23 24 22 20 19 16 16 20 28 35 36 29 23 23 24 22 22 25 26 26 28
0 4 6 3 2 6 2 2 4 4 2 1 2 3 1 1 2 2 1 2 2 2 4 3 1 3 3 3 6 9 9 6 5 5 5 6 7 5 3 3 2 3 3 4 6 7 7 9 10 12 13 13 16 17 19 20 15 15 18 15 15 18 19 20 22 23 23 21 20 18 16 18 24 31 36 32 24 22 23 23 23 24 26 26 27 29
1 1 5 3 3 5 4 4 4 5 5 3 2 3 2 2 3 1 0 1 1 3 4 4 3 2 2 3 7 9 7 5 4 4 5 6 7 6 3 2 2 2 3 4 5 5 8 9 9 11 12 13 15 16 16 16 15 16 17 15 17 20 18 20 23 24 23 21 21 18 17 20 28 35 35 27 23 23 23 23 24 25 25 26 29 31
2 0 4 6 5 5 4 3 2 4 5 4 4 4 3 2 1 1 1 1 1 2 2 3 4 3 2 1 5 7 6 6 5 4 4 4 6 6 4 2 3 3 4 5 5 6 8 8 9 11 13 14 15 15 15 15 15 17 17 16 18 19 18 20 25 25 22 21 22 19 17 23 32 36 31 24 24 25 24 24 25 25 27 29 32 31
2 1 2 5 5 5 4 2 1 3 3 0 1 1 1 3 2 2 4 1 1 1 2 2 4 3 2 3 5 7 6 6 6 4 3 3 5 7 5 2 3 4 5 5 5 6 7 7 10 12 14 15 16 15 15 16 16 17 18 18 18 18 18 21 25 24 21 22 23 18 18 27 34 32 27 26 27 26 25 26 26 27 29 30 31 29
1 2 1 4 5 6 7 4 1 1 1 3 1 2 1 1 2 1 5 3 1 1 2 1 2 1 2 3 5 6 6 5 4 3 4 4 4 6 5 2 3 5 5 5 5 5 6 9 12 14 14 15 16 16 16 16 16 17 19 18 19 18 19 23 26 25 22 23 23 19 21 29 33 30 29 30 28 25 25 27 27 27 28 29 29 27
1 2 2 4 5 5 5 3 1 2 4 3 2 3 2 2 1 4 4 1 1 3 2 2 2 1 3 4 5 4 4 4 2 3 5 5 5 6 5 2 4 5 5 5 5 6 8 10 12 13 13 14 16 15 15 16 16 18 19 19 19 19 20 25 27 25 23 23 22 20 23 29 30 28 28 27 26 25 26 27 27 27 28 29 29 27
2 1 2 4 6 6 6 6 5 5 5 3 4 4 3 4 5 3 2 0 1 2 2 3 2 2 3 3 3 3 3 2 2 3 5 6 6 7 4 1 4 4 4 5 6 6 8 10 11 12 12 14 15 15 16 16 16 18 20 20 19 19 22 25 25 24 23 23 22 21 23 26 26 25 26 26 26 26 26 27 28 28 28 29 29 28
1 0 2 3 3 6 6 6 7 7 5 3 4 7 7 7 6 3 2 1 1 4 5 3 2 1 0 1 2 1 0 3 3 3 4 6 7 6 3 2 3 3 4 6 6 5 7 9 10 11 12 13 14 15 16 17 17 18 19 19 19 21 23 24 23 23 23 22 21 21 22 23 24 25 26 26 26 27 27 28 28 29 29 29 29 29
2 1 2 3 3 4 6 7 7 7 5 4 6 9 8 7 5 2 1 2 4 6 4 2 2 5 3 1 1 2 2 3 4 4 5 7 7 6 2 2 3 3 4 7 6 5 6 8 9 10 11 12 14 15 16 16 17 18 19 19 20 22 23 23 22 22 22 21 20 21 22 23 24 25 26 26 26 27 28 28 28 29 29 28 28 30
4 2 2 2 4 7 7 8 8 5 2 3 7 8 8 8 8 6 3 3 5 5 3 2 4 8 6 1 2 5 3 3 5 5 6 8 8 6 2 2 3 4 5 6 5 4 5 7 8 9 11 12 15 17 17 17 17 18 19 19 20 22 23 22 22 22 21 21 21 22 23 24 25 26 27 27 28 28 28 28 29 29 29 30 30 31
5 1 2 1 4 9 8 6 4 3 1 3 6 7 8 8 9 9 5 5 7 6 5 5 7 9 6 2 3 5 3 4 6 6 6 8 9 6 3 1 3 4 5 6 6 4 4 6 8 10 11 13 16 18 18 18 18 19 20 20 21 24 25 23 22 23 22 22 23 23 25 26 26 28 29 29 29 29 29 30 30 30 31 32 33 33
3 2 2 0 4 9 8 4 3 4 2 4 6 8 8 8 7 7 5 6 7 6 6 5 8 8 4 1 3 4 2 4 6 6 7 9 10 6 2 1 2 3 4 6 7 5 4 7 10 11 13 15 17 18 18 18 19 20 21 20 22 25 26 23 22 22 23 23 25 26 27 28 30 31 32 31 31 31 31 31 32 33 34 35 35 35
3 2 1 2 3 7 6 6 7 4 4 4 8 11 11 9 7 6 6 7 7 7 6 6 8 6 1 1 4 5 4 6 8 9 9 10 9 5 2 2 3 4 5 6 6 6 7 9 11 12 13 15 17 18 18 18 20 20 20 20 23 25 24 23 22 23 24 26 27 28 29 31 33 34 34 34 33 33 34 35 35 35 36 36 36 37
4 3 2 5 5 6 3 8 12 5 5 5 10 13 12 8 5 4 5 5 6 8 9 9 7 4 2 4 7 8 8 10 11 11 10 9 8 4 2 3 4 4 5 6 6 6 7 10 12 12 13 16 18 18 18 19 20 19 19 21 24 25 24 24 24 24 26 27 28 30 31 33 34 35 35 35 35 35 36 36 37 37 37 37 38 38
2 2 3 4 3 6 4 8 11 5 4 3 5 7 7 5 4 5 6 7 6 4 5 7 5 5 6 8 10 12 12 13 11 9 9 10 7 3 2 3 3 4 4 5 6 7 8 11 12 12 14 16 18 18 18 19 19 19 21 24 25 25 25 25 25 25 27 28 30 32 33 34 34 35 36 35 35 36 37 37 38 37 37 38 39 38
3 3 2 1 1 5 8 9 7 5 4 2 2 1 3 4 5 7 10 12 7 2 2 4 5 6 8 9 10 13 14 12 9 9 10 6 2 1 3 3 2 3 5 5 7 9 11 12 13 13 15 17 18 18 19 19 19 21 24 25 25 25 25 25 26 26 27 29 31 33 34 34 34 36 36 36 37 38 37 37 37 37 37 38 38 38
3 3 1 1 1 3 5 7 7 5 2 4 4 2 3 5 6 8 12 10 4 1 2 4 5 8 9 8 8 11 13 11 9 11 8 1 3 0 4 3 2 4 5 5 7 9 12 13 13 14 16 17 18 19 19 19 19 22 24 25 25 25 24 25 26 26 27 30 32 33 34 35 36 36 37 38 37 38 38 37 37 37 38 38 37 37
2 1 1 1 1 2 3 4 5 4 1 1 2 3 4 4 4 9 11 6 3 2 2 4 7 8 7 9 9 10 12 11 9 8 3 3 3 1 2 3 3 3 5 6 7 9 12 14 13 15 17 18 19 19 18 18 20 22 24 24 24 25 24 25 25 26 28 30 32 34 34 35 36 37 37 37 37 38 38 38 37 38 38 38 38 37
3 2 1 1 1 1 2 4 4 3 2 2 2 2 2 3 5 7 8 5 2 2 2 6 9 9 8 11 12 12 13 11 8 4 2 3 2 2 0 2 2 3 6 7 9 11 13 14 15 17 19 19 20 19 18 20 22 23 24 24 24 24 24 24 25 26 28 31 32 34 35 35 36 36 37 36 37 38 38 37 38 38 37 37 38 38
3 1 1 1 1 2 2 4 4 5 4 3 4 3 2 4 6 5 5 4 1 1 3 6 9 10 10 12 13 12 10 9 8 5 2 1 1 2 1 3 3 5 8 8 11 14 15 15 16 18 20 19 19 19 18 21 23 22 23 23 23 24 24 24 25 26 29 31 33 34 35 35 34 35 36 36 35 37 38 38 38 38 37 36 37 39
6 3 4 3 2 2 2 1 2 3 4 5 5 4 4 5 4 2 4 4 0 1 5 6 8 10 11 12 13 11 7 6 8 6 1 0 2 1 2 4 5 8 10 11 13 15 15 16 17 19 20 19 19 19 19 21 22 21 22 23 23 24 24 24 26 28 30 32 33 34 34 35 35 34 34 35 35 36 37 38 38 38 38 36 37 38
6 5 4 4 2 0 1 2 3 3 4 4 4 4 6 4 2 1 7 5 0 2 5 5 8 10 9 10 11 9 6 6 7 6 4 3 4 3 3 5 8 11 12 13 15 14 15 16 17 18 19 18 18 20 20 20 20 20 22 23 24 24 25 26 28 30 32 33 34 34 35 35 35 35 34 34 35 36 36 37 37 39 39 38 38 37
3 3 2 2 1 1 1 2 3 4 4 3 3 5 6 2 2 2 8 6 3 6 7 5 8 9 8 9 9 7 7 6 7 9 10 8 6 6 7 9 10 12 13 14 15 14 14 16 16 17 18 18 19 20 20 20 20 21 23 23 24 25 26 28 30 31 32 33 34 35 35 35 35 35 34 33 34 35 36 36 36 38 38 39 38 37
1 2 2 1 1 1 1 2 4 5 3 2 3 4 2 3 4 5 5 4 6 9 9 7 9 8 7 8 7 6 7 8 8 11 10 7 7 8 10 11 12 12 13 14 14 14 14 15 16 17 19 19 20 21 21 21 21 22 23 23 24 26 27 29 31 31 32 33 34 34 34 34 34 34 34 33 32 33 35 36 36 37 37 37 37 37
2 0 3 2 1 1 2 1 3 4 3 2 3 3 2 2 6 5 4 5 7 9 10 9 9 8 7 7 6 6 8 9 10 10 8 6 7 9 10 11 12 13 13 14 15 15 15 16 17 18 20 21 21 22 21 21 21 23 23 24 25 27 28 29 30 31 32 33 34 34 34 34 35 34 33 32 31 31 34 36 37 37 36 35 36 36
2 2 1 3 2 1 1 2 3 4 4 1 1 3 4 4 3 2 4 7 7 8 8 7 7 7 7 7 7 9 9 9 10 9 8 7 7 9 11 12 13 14 14 15 16 16 16 17 18 19 21 22 22 22 21 21 22 23 23 25 26 28 29 30 30 31 33 33 33 34 34 33 34 33 32 31 30 30 32 34 36 36 36 34 34 33
4 5 3 3 3 3 4 6 5 6 6 1 2 4 6 5 2 2 5 7 7 7 6 5 7 7 6 6 8 9 9 9 9 9 8 7 7 9 11 13 14 15 16 16 17 17 17 18 19 20 22 23 23 23 22 22 22 23 24 26 27 27 28 30 30 31 32 33 33 34 34 33 33 32 31 30 29 29 31 32 33 35 35 34 33 32
4 3 3 2 3 4 5 6 6 6 6 4 3 4 5 4 3 4 6 7 7 6 5 6 7 6 4 5 7 8 8 9 9 9 7 6 8 10 13 15 16 16 16 17 18 18 18 18 19 20 22 24 24 23 24 23 22 23 25 26 26 26 27 28 30 31 31 32 32 33 32 32 33 32 31 30 29 28 29 30 30 31 33 33 32 31
3 1 2 2 2 3 4 4 4 5 6 6 6 5 4 3 3 4 6 7 7 6 5 6 6 6 6 6 7 8 10 9 8 8 6 5 7 11 13 15 16 16 17 17 18 19 18 18 19 19 21 24 25 24 24 24 22 22 24 25 25 25 26 27 29 30 31 32 32 32 31 31 31 31 31 31 30 29 29 29 29 28 29 31 31 30
1 1 2 3 3 3 6 8 8 8 9 8 6 4 2 3 6 6 6 7 7 7 7 7 6 6 6 7 8 9 10 9 8 8 6 5 8 11 14 15 16 17 17 18 18 18 18 17 18 20 21 24 25 25 24 24 23 22 23 24 24 24 25 27 28 29 31 31 30 30 30 30 30 30 30 31 31 29 29 30 30 28 27 29 29 28
2 1 2 2 3 4 7 8 8 9 8 6 4 3 2 4 7 7 6 6 6 6 7 8 8 8 9 10 10 10 9 9 9 8 7 6 8 11 14 16 16 17 18 18 18 18 18 18 19 20 22 24 25 25 24 24 23 23 22 23 24 24 25 27 28 29 31 30 29 29 29 29 29 29 29 30 31 30 28 28 27 28 29 29 27 26
2 2 2 0 3 5 5 3 5 7 7 7 5 5 5 5 6 6 5 5 5 5 6 7 9 10 11 12 12 10 8 8 10 10 9 9 10 13 15 16 16 17 18 19 18 18 18 20 20 21 23 24 25 25 24 24 23 23 22 22 23 23 24 26 28 30 30 29 28 28 28 28 29 29 29 29 29 30 32 30 27 25 26 27 28 28
4 5 4 3 5 6 6 4 3 3 7 10 9 7 7 6 5 6 6 5 5 6 7 8 9 10 10 11 11 9 8 10 13 12 10 11 13 15 16 16 16 17 19 19 18 19 20 21 21 21 23 24 25 25 24 24 23 22 21 21 22 22 23 25 26 28 29 29 28 28 27 27 28 29 29 29 29 29 31 33 33 31 28 25 25 28
Wind_Direction
64 31 276 241 238 242 239 218 218 220 188 225 233 232 252 254 271 260 251 292 210 161 268 232 65 20 359 344 345 343 359 34 60 99 105 107 110 109 106 101 97 94 93 97 99 102 98 90 87 85 82 81 77 69 64 59 53 49 45 40 35 29 24 22 19 14 12 9 5 359 356 352 350 348 344 338 333 329 325 323 322 323 324 324 322 321
54 356 248 237 234 242 255 220 190 141 122 190 213 238 276 235 257 264 226 310 297 171 285 64 76 21 358 355 353 356 20 27 31 90 101 106 107 103 105 102 98 97 99 98 94 91 87 82 80 80 78 75 69 62 58 53 48 44 42 39 34 27 23 22 17 12 9 8 4 358 354 352 350 351 350 346 343 340 334 329 327 327 327 326 325 323
13 256 249 244 209 156 53 104 131 117 114 106 159 232 287 255 275 295 314 327 328 166 269 86 87 26 355 0 10 14 25 28 28 61 78 96 101 98 103 105 103 100 96 93 86 80 79 77 77 75 71 68 63 58 54 49 45 40 39 36 30 25 21 18 14 10 9 7 5 1 357 356 352 350 349 347 345 342 339 336 335 333 331 330 328 327
317 256 249 232 148 119 42 59 85 45 34 175 212 261 273 272 288 287 313 321 299 147 200 125 92 52 357 358 20 13 14 44 45 57 59 63 86 91 92 97 104 105 99 91 80 74 74 74 73 70 66 63 59 54 49 45 41 37 35 31 26 21 17 14 12 10 9 6 3 0 357 355 351 347 346 345 345 345 344 343 342 341 339 337 334 332
264 255 174 85 76 98 275 334 42 272 307 275 221 227 249 264 232 233 285 316 327 342 140 115 56 354 7 8 14 356 9 39 37 57 59 48 63 78 78 77 86 96 96 92 82 73 74 74 71 68 64 60 56 51 46 42 38 35 32 26 21 18 15 13 11 8 7 5 2 358 355 353 351 349 350 350 348 348 348 346 343 342 341 341 339 338
275 274 37 60 41 56 103 292 258 205 272 307 244 223 234 250 245 248 333 357 7 331 210 107 7 305 4 25 4 342 20 36 21 47 55 42 50 66 76 77 79 81 82 85 83 79 78 76 71 66 62 58 54 48 42 39 36 32 27 21 17 16 14 12 8 6 6 6 4 1 359 356 353 353 355 353 347 343 341 338 335 334 334 334 334 333
280 348 41 78 71 51 40 289 252 171 114 316 271 211 197 142 104 352 12 15 335 275 282 101 217 263 309 33 351 349 42 45 31 46 47 40 48 59 72 78 80 79 78 79 77 78 79 76 72 67 60 56 51 43 38 35 31 27 21 16 14 15 13 9 5 5 7 7 5 5 4 0 358 355 349 344 339 335 334 333 333 334 334 333 330 327
241 353 20 51 65 43 6 297 251 141 109 275 249 114 108 103 257 233 173 220 233 267 294 218 168 250 261 188 139 51 73 59 43 45 37 38 54 66 72 72 75 76 78 80 75 77 79 76 73 69 61 55 47 38 34 31 26 21 16 13 13 14 11 6 4 5 9 9 6 7 7 4 359 350 341 337 336 337 338 338 339 339 339 339 338 334
233 325 338 41 43 12 266 258 210 140 141 261 216 144 133 157 231 201 175 210 272 354 288 224 148 217 262 173 152 161 100 90 74 57 40 44 63 75 77 72 74 74 73 77 77 80 80 76 72 67 61 50 40 35 31 27 22 16 13 12 11 10 6 3 4 7 11 11 9 9 6 357 349 343 340 340 342 344 345 344 343 342 341 341 342 341
275 223 213 140 123 248 247 249 194 164 252 252 160 147 56 71 62 108 143 160 66 359 252 233 180 187 251 186 174 190 143 150 154 101 56 60 77 79 77 74 75 76 73 73 78 81 79 74 68 62 55 44 35 32 27 22 17 11 11 10 7 6 2 2 6 8 10 12 11 6 356 349 345 345 346 347 347 347 347 345 344 344 341 340 342 343
312 285 202 127 176 216 238 271 182 177 254 343 84 344 355 27 36 47 78 100 67 282 255 258 213 158 281 207 179 193 169 160 158 125 91 77 77 68 68 70 71 75 74 71 76 80 77 69 61 55 49 39 30 25 21 17 12 8 9 7 3 3 2 4 6 7 9 10 3 354 349 348 349 349 349 348 347 347 347 346 342 340 338 339 340 339
346 29 211 312 311 135 31 351 346 12 9 59 50 11 346 336 12 25 354 50 89 257 265 288 238 153 236 229 189 203 140 135 142 131 114 98 80 66 59 62 66 74 76 71 72 75 69 59 51 48 42 33 26 21 17 14 10 9 9 3 1 3 3 4 4 6 7 360 351 347 350 354 353 352 351 348 347 347 345 341 335 334 333 333 332 332
338 321 304 332 4 69 30 350 342 359 38 44 24 34 14 339 360 353 317 326 209 244 260 346 6 184 224 258 135 143 133 131 133 125 117 105 84 61 47 50 62 73 71 68 69 67 61 52 46 43 37 30 26 23 17 12 10 12 9 1 0 2 1 1 4 4 357 349 347 348 352 355 353 352 353 351 348 345 339 333 329 329 328 328 329 329
333 310 339 3 356 31 48 6 333 326 8 3 353 72 60 12 360 305 284 294 283 269 264 339 4 257 210 15 12 114 126 124 119 114 107 99 90 68 46 47 68 80 69 62 71 73 64 58 52 45 38 32 28 24 15 11 10 11 4 359 360 360 359 2 3 355 347 346 347 350 351 352 353 354 353 350 344 338 332 328 325 325 325 325 323 323
347 315 329 9 344 2 26 10 298 280 339 332 199 124 124 153 198 275 251 263 287 290 289 294 297 233 200 12 352 67 104 101 101 102 95 94 93 76 51 49 75 87 73 67 77 82 76 65 58 47 37 31 26 21 13 9 9 7 360 358 359 357 358 1 357 346 343 344 345 347 350 352 353 350 347 345 339 334 329 326 324 323 324 322 317 321
103 265 272 327 359 24 6 328 76 38 359 313 146 88 38 181 175 250 217 202 265 313 309 273 178 198 103 37 18 69 96 93 93 97 94 90 73 68 55 54 86 93 77 77 84 85 79 67 57 45 35 29 23 17 10 6 7 2 356 356 357 356 356 356 349 340 340 342 341 344 349 348 342 340 340 339 337 336 332 326 323 321 321 320 316 321
15 276 284 339 13 51 48 262 351 17 330 322 47 322 248 187 138 240 282 2 52 325 290 189 130 83 74 109 86 106 116 115 117 116 103 88 59 54 57 63 92 99 83 83 90 86 76 66 56 42 34 28 22 15 6 3 4 356 352 354 353 352 351 349 344 339 339 339 337 341 345 336 332 336 337 337 337 337 332 327 324 320 319 319 317 319
311 281 300 359 348 299 194 203 2 20 46 45 325 273 260 125 94 110 296 346 18 278 273 10 132 201 181 171 181 157 149 139 125 113 94 67 40 31 43 60 98 111 101 97 96 90 72 61 53 37 30 25 19 10 0 360 0 351 349 350 348 347 347 346 343 339 339 338 334 336 334 325 328 334 336 338 337 331 327 327 325 322 321 319 317 318
33 289 306 10 308 292 322 57 3 349 17 82 244 280 11 26 323 12 15 319 334 292 287 326 327 218 211 189 183 176 164 142 114 99 79 47 25 11 17 40 77 106 109 101 92 84 63 52 45 32 24 18 11 2 355 357 356 346 345 346 345 343 341 342 341 339 339 337 332 331 324 321 328 333 336 339 336 328 326 325 322 321 321 319 318 319
10 308 294 310 299 306 347 29 1 330 337 7 349 342 37 161 215 280 280 210 272 291 290 323 333 263 249 212 181 172 149 119 100 84 69 46 18 351 341 12 26 52 85 91 85 71 53 43 36 27 20 11 3 354 352 356 353 345 344 341 340 339 336 338 341 339 337 334 332 328 321 323 330 334 337 337 333 329 325 322 320 318 319 319 320 320
356 106 269 301 325 334 346 20 8 318 318 350 6 357 352 332 303 295 303 125 131 276 268 314 305 267 302 338 148 134 106 91 81 61 55 52 15 344 324 339 12 44 69 80 73 52 40 32 25 19 12 4 356 352 355 356 350 345 343 339 337 337 336 337 339 338 333 331 331 327 321 325 331 334 336 332 328 328 325 323 322 320 319 321 321 320
3 87 266 310 333 331 311 300 284 275 265 211 20 26 337 319 347 323 302 319 103 210 192 264 290 276 342 30 101 104 95 85 74 56 27 27 11 349 333 338 29 60 73 73 59 39 31 26 16 7 2 359 354 354 356 353 348 345 341 337 335 335 334 335 337 336 332 331 333 329 322 326 331 335 334 331 329 327 324 323 322 320 320 319 319 318
94 91 348 296 290 292 296 304 306 242 149 131 94 61 84 8 54 268 282 302 324 274 183 200 277 286 17 48 78 86 96 95 83 67 26 1 352 346 334 342 51 75 81 66 47 32 28 21 9 1 358 358 355 354 352 348 346 343 338 335 333 332 332 334 336 335 331 331 333 329 322 326 332 334 333 332 329 325 322 321 320 319 318 316 315 314
57 72 6 294 284 297 314 336 16 62 66 55 2 33 62 351 321 222 245 284 271 272 276 267 265 79 58 60 77 91 109 106 84 58 27 352 335 339 328 344 58 79 80 46 24 22 22 15 7 2 359 357 353 350 346 342 340 339 336 333 332 330 329 332 334 333 330 330 332 328 324 327 331 331 330 328 325 322 321 319 318 318 316 315 314 312
348 23 7 340 333 340 348 350 344 357 25 9 324 358 25 335 318 273 261 280 208 278 326 294 285 67 69 56 74 108 114 59 19 30 16 351 340 332 321 42 69 79 64 21 2 16 20 11 5 2 356 352 349 345 341 337 336 336 334 332 330 328 327 329 330 330 329 328 328 327 325 326 329 328 326 325 323 321 319 318 317 317 316 316 315 312
299 273 51 44 349 333 328 324 329 338 344 344 341 354 357 339 327 304 292 336 318 332 351 346 331 6 158 152 75 95 62 352 349 2 357 346 338 320 305 80 78 77 48 9 355 16 18 3 357 354 349 347 345 340 336 333 332 333 331 329 329 326 325 327 327 328 328 326 325 325 325 325 326 326 324 322 322 321 319 318 317 316 316 316 315 313
93 14 53 124 198 266 279 283 310 336 330 336 353 348 345 341 335 320 343 1 324 312 332 34 355 330 312 200 45 342 321 333 341 348 342 337 331 314 292 98 83 69 35 2 354 16 9 350 345 345 343 342 341 337 332 330 329 330 328 327 327 326 325 325 325 325 326 326 325 325 326 326 325 324 322 321 320 320 319 318 317 316 316 315 313 312
78 3 350 116 226 251 265 282 307 335 324 350 1 350 347 353 7 34 49 352 333 319 328 28 360 334 331 9 11 337 333 342 337 334 333 331 325 313 302 79 62 37 14 353 348 7 358 340 336 338 337 338 338 334 330 328 327 327 327 324 324 325 325 324 324 325 326 326 327 327 327 327 324 323 322 321 320 319 318 318 317 315 314 313 312 310
99 303 279 100 275 280 291 296 318 360 41 56 23 358 355 3 16 30 24 353 359 340 307 332 338 324 322 355 357 343 344 333 320 316 324 326 320 310 304 45 37 12 358 344 338 347 346 334 333 335 335 336 336 333 330 328 327 327 327 324 323 326 328 327 326 326 327 326 327 327 327 326 325 324 323 322 321 320 319 318 316 314 313 313 312 311
113 283 267 86 298 298 309 316 347 9 49 69 30 10 7 10 18 21 359 346 351 312 275 310 319 304 300 338 342 348 337 304 303 309 323 326 321 317 319 21 14 352 345 337 333 334 334 332 333 332 332 334 334 332 329 328 328 327 325 324 324 326 329 328 325 325 326 325 326 326 326 326 326 325 325 324 322 321 320 318 317 315 315 315 314 314
36 333 303 62 339 305 323 350 345 2 109 81 25 14 5 1 11 12 354 348 341 307 289 311 306 290 248 42 329 327 314 309 313 319 328 328 323 323 338 351 342 335 334 330 327 329 330 330 330 329 331 332 332 330 329 327 327 326 324 323 324 324 326 326 324 324 325 325 326 326 327 327 327 327 326 325 324 323 321 320 319 318 318 318 318 317
32 354 340 51 8 299 325 357 337 348 107 78 24 11 356 352 357 342 330 328 317 301 306 316 311 307 344 337 321 321 324 325 322 321 326 324 322 332 349 336 331 326 323 322 323 330 330 327 326 326 328 330 330 328 327 326 325 323 322 323 323 323 324 325 325 324 324 325 326 327 327 328 328 327 326 326 325 324 323 322 322 322 321 321 321 320
77 21 336 36 1 295 325 345 327 349 65 36 8 358 333 309 298 307 311 306 290 263 285 306 311 326 341 335 327 328 329 327 324 324 322 317 318 338 344 328 320 309 311 321 328 329 325 321 321 322 325 328 328 326 325 325 323 321 322 322 322 323 324 324 324 323 324 325 326 327 328 328 327 326 325 326 325 325 325 325 323 323 323 322 322 321
75 67 332 34 12 297 318 333 336 24 27 288 190 86 320 279 279 308 314 306 293 227 244 294 311 328 338 337 332 328 322 319 323 322 314 309 307 326 320 315 301 304 316 326 326 324 320 317 316 317 323 327 326 324 324 323 321 320 321 322 323 323 323 323 324 324 324 326 327 328 328 328 326 325 325 327 327 327 326 325 324 324 323 323 322 320
32 37 326 88 137 272 315 353 359 7 332 227 181 135 313 268 254 291 300 288 263 234 303 311 318 325 330 327 325 320 312 310 316 313 309 342 124 303 312 314 313 316 318 318 317 316 315 314 312 316 323 326 325 324 323 322 321 321 321 322 323 322 323 322 322 322 323 325 326 327 328 327 327 326 327 328 328 327 326 325 324 324 324 322 320 318
40 38 335 135 167 309 3 13 344 325 263 213 255 299 316 302 295 317 316 293 196 186 300 322 317 316 322 320 321 321 312 307 307 306 312 107 116 123 311 306 312 318 313 310 311 313 314 311 311 317 323 324 323 323 322 321 323 322 321 322 322 321 321 321 320 321 324 325 326 327 328 328 327 326 327 327 327 326 326 325 324 324 324 322 320 318
103 98 22 359 26 24 341 302 298 327 350 331 295 289 327 317 305 312 309 291 186 176 306 323 316 312 319 319 320 320 312 303 301 306 106 118 139 132 102 296 301 311 306 305 310 316 318 313 311 317 322 322 322 324 324 323 324 323 321 321 321 320 321 320 320 322 324 324 326 327 327 328 327 325 325 326 326 325 324 324 323 323 324 322 319 318
64 86 102 20 13 75 8 314 327 341 316 256 226 215 222 274 276 268 274 279 63 32 314 308 308 313 321 320 320 320 311 299 303 318 63 117 195 159 278 307 316 309 306 311 319 324 322 315 312 316 320 321 322 324 325 325 324 322 319 319 320 320 319 319 320 322 323 324 325 326 326 327 326 325 324 324 324 324 323 323 323 323 324 322 318 318
26 26 97 75 11 57 72 315 279 281 266 230 220 238 268 277 264 254 288 287 135 339 313 309 310 317 323 322 322 323 312 293 304 320 41 118 283 275 300 314 319 313 313 319 323 323 319 312 312 315 318 320 321 324 326 325 323 320 317 318 320 319 319 320 322 323 323 323 324 325 326 327 326 325 325 324 324 324 323 324 324 324 324 322 320 319
15 0 36 44 348 170 149 250 247 245 250 231 220 256 288 277 161 28 321 305 230 328 326 325 315 316 324 322 320 318 305 293 304 321 339 339 326 322 311 312 316 315 316 319 320 317 313 310 311 313 316 319 321 323 326 325 322 319 317 319 321 320 321 322 323 323 323 323 325 326 327 328 327 326 325 325 325 325 325 325 325 325 324 323 322 321
5 349 22 55 329 258 215 254 276 270 254 235 245 276 296 300 116 345 310 299 324 331 330 326 313 311 317 316 310 303 296 293 299 311 319 326 324 313 307 309 313 313 313 314 315 314 310 308 309 311 314 319 322 325 328 326 322 320 320 321 320 320 322 323 323 323 324 324 325 326 328 329 328 327 326 326 326 326 325 326 326 325 325 324 324 323
353 335 342 16 340 300 184 217 289 288 242 203 264 280 323 349 319 302 296 306 323 321 319 313 305 303 305 301 289 280 288 295 299 303 308 312 308 304 306 310 311 311 311 312 313 312 309 308 310 311 316 322 326 327 329 326 322 320 320 320 319 321 324 324 324 324 324 324 325 326 327 328 328 328 327 328 329 327 325 326 327 326 325 325 324 324
177 303 311 284 229 332 354 352 312 289 236 208 308 333 53 343 302 295 305 315 312 308 308 305 298 299 300 287 275 280 290 295 299 300 301 300 298 302 307 310 309 309 311 313 313 313 312 310 311 314 318 322 326 327 328 325 321 320 319 317 320 324 326 325 325 324 323 323 325 326 327 328 329 329 328 328 330 327 324 326 328 327 327 327 326 325
193 171 255 263 212 115 323 229 223 266 262 208 315 309 291 279 282 305 307 303 303 304 305 299 289 291 292 284 286 294 295 295 298 301 302 299 297 303 307 308 307 308 310 312 312 314 314 311 311 314 316 319 323 326 326 325 321 318 317 319 325 328 326 325 325 324 323 324 325 326 327 328 329 329 329 330 331 328 326 327 329 328 328 329 328 325
214 189 190 233 222 200 228 238 256 292 303 269 191 251 275 272 254 265 281 286 296 301 299 295 293 292 289 286 289 292 294 297 300 300 299 297 298 303 305 305 305 307 308 309 311 313 314 312 311 313 314 317 322 324 325 326 322 317 317 323 328 328 326 325 324 323 323 324 325 326 327 328 328 330 331 331 331 329 327 328 328 328 328 328 328 325
229 190 159 198 260 270 263 260 273 291 292 279 251 255 265 259 247 268 278 282 292 296 292 291 291 291 294 291 284 285 290 296 296 293 293 293 295 300 303 302 303 304 305 308 311 313 314 312 310 311 311 314 319 323 325 326 322 318 319 326 328 326 325 324 322 322 323 324 324 327 328 328 329 330 331 331 331 330 329 328 327 326 326 326 327 325
269 191 166 198 282 312 286 272 293 299 288 290 295 283 255 237 254 276 283 283 285 283 279 280 283 287 294 291 283 285 289 292 293 291 289 286 291 297 299 298 298 301 303 306 310 313 313 310 308 308 309 311 316 320 322 322 322 321 323 326 327 326 325 324 323 322 323 324 325 327 329 328 328 329 330 330 331 331 330 330 328 326 325 325 325 324
244 207 235 219 205 234 263 272 290 294 279 277 289 286 256 276 295 295 286 277 275 275 277 282 283 287 292 291 287 287 290 290 287 285 283 279 285 292 294 293 294 297 301 305 309 311 309 306 306 306 306 307 312 317 319 319 321 324 326 326 327 327 326 324 324 323 322 324 326 327 328 328 327 327 328 328 330 331 330 330 329 326 324 324 322 321
145 186 229 214 229 259 268 279 301 306 287 263 261 264 266 299 304 300 286 274 274 279 285 286 284 283 287 290 289 289 290 287 283 280 279 279 283 288 292 293 294 295 299 304 309 309 307 305 304 305 305 306 311 315 316 317 320 324 327 328 329 329 326 325 325 324 323 324 326 326 328 328 327 327 327 327 328 329 329 328 328 325 323 324 323 319
159 222 208 200 277 267 260 280 322 319 297 282 288 302 312 311 295 283 281 281 282 289 292 291 290 287 284 284 286 287 286 282 281 279 274 272 280 288 293 294 293 294 299 304 307 307 306 305 305 305 305 307 311 314 314 316 320 325 329 330 329 328 326 325 325 323 323 324 324 325 326 326 326 326 327 327 327 328 328 328 329 326 323 324 324 322
192 205 186 189 244 255 266 284 290 276 278 287 299 310 312 303 275 267 277 276 277 293 301 300 299 295 290 287 285 281 277 280 281 277 271 272 282 290 295 296 294 295 300 304 305 304 304 305 306 305 305 309 312 313 314 315 319 324 328 329 328 326 325 325 323 320 320 321 322 324 325 324 324 325 326 327 327 327 327 328 329 331 331 329 326 325
Height
809 806 807 806 804 806 809 812 811 814 818 815 815 815 815 815 813 809 807 817 823 811 810 818 819 830 838 836 835 832 827 826 825 825 827 829 831 832 835 837 839 841 844 846 846 846 847 849 850 850 851 851 852 853 854 854 854 855 855 854 855 856 855 853 852 851 850 848 847 845 844 843 841 840 839 838 837 836 835 834 833 832 831 830 829 828
811 807 806 807 811 815 818 820 820 820 820 817 816 814 816 817 811 809 811 819 822 811 814 823 823 835 842 838 838 835 831 832 831 829 829 831 833 835 837 839 842 845 847 847 847 849 850 850 852 852 853 853 854 856 855 855 857 857 857 857 858 857 855 854 853 852 851 849 848 846 844 842 840 839 838 836 835 834 834 832 831 830 829 828 827 825
811 806 806 814 823 824 822 824 821 818 817 816 818 816 814 816 812 811 817 823 821 812 813 820 823 836 842 838 839 838 837 838 836 835 834 834 836 838 840 841 844 846 847 848 849 851 852 853 854 854 855 856 856 857 857 858 859 859 859 859 858 857 855 854 853 852 851 849 848 846 844 842 840 838 837 836 835 834 832 831 830 829 827 826 824 823
808 804 812 823 825 820 816 820 819 816 816 814 816 815 810 815 813 806 812 820 819 817 817 818 823 836 841 838 839 839 840 841 839 839 839 839 840 841 843 843 845 847 848 851 852 853 855 855 856 857 858 858 858 859 860 860 860 860 860 859 858 857 856 855 853 852 850 848 847 845 843 842 840 838 836 835 833 832 831 829 828 827 826 824 822 821
806 810 824 826 821 818 813 815 815 813 814 813 813 812 807 811 811 808 814 817 816 820 823 820 818 830 843 843 843 843 841 842 842 842 842 844 845 845 845 847 847 849 851 853 855 856 857 857 858 860 860 860 861 861 862 862 861 861 860 859 858 857 856 855 853 851 849 846 844 842 840 838 837 836 834 832 831 830 829 828 827 826 825 823 821 820
809 820 827 818 816 818 814 813 813 812 814 812 810 812 810 811 812 814 816 815 811 811 818 819 806 817 845 849 845 848 845 845 847 845 846 848 848 848 848 851 852 852 854 854 856 858 858 860 861 862 862 862 862 863 864 863 862 862 861 860 859 857 856 854 852 850 847 845 844 841 839 838 836 835 835 834 832 831 829 827 825 824 823 821 820 818
815 824 825 816 815 816 814 813 813 816 815 810 813 820 819 817 817 816 815 814 809 806 815 819 803 809 840 849 847 851 850 850 850 849 851 852 851 852 852 854 854 855 856 856 858 860 860 862 862 863 864 864 865 865 865 864 863 862 861 860 858 857 855 853 852 850 847 846 845 843 842 841 839 838 837 836 834 832 829 826 824 822 820 819 818 817
818 818 818 817 815 814 814 812 815 819 813 810 821 826 819 817 817 816 817 816 815 815 817 819 811 807 825 842 848 852 852 852 853 852 855 856 856 856 856 857 857 857 858 859 860 861 862 863 863 864 866 866 866 866 864 864 863 862 861 860 858 857 855 854 852 850 848 847 846 844 843 842 841 840 838 835 833 830 828 825 823 821 819 818 817 816
819 813 813 816 815 815 814 814 820 821 812 813 827 828 822 821 820 820 821 819 824 825 812 814 820 810 819 845 851 849 853 854 854 856 857 859 859 858 858 859 859 860 860 860 861 863 864 864 865 866 866 866 866 865 865 864 864 863 861 860 858 856 855 854 852 851 849 848 847 845 844 843 841 840 838 835 832 829 827 824 822 820 819 817 816 815
818 818 819 818 815 815 815 820 826 821 814 821 830 828 826 828 827 826 824 820 826 824 806 807 815 803 815 849 853 848 854 854 855 858 859 861 860 859 860 860 860 861 862 862 863 864 865 865 866 866 866 866 866 866 866 865 863 862 860 859 858 857 856 854 853 851 850 849 848 846 845 843 841 838 836 833 831 829 826 824 822 820 818 817 816 814
822 827 826 822 820 820 821 826 831 827 823 827 828 822 819 825 829 829 830 828 823 812 803 812 819 804 806 837 849 846 849 851 855 859 860 861 861 860 861 861 862 862 862 864 864 865 866 866 867 867 867 867 867 866 864 863 863 862 861 861 860 859 857 856 854 853 851 850 849 847 845 843 840 838 835 833 831 828 826 825 823 821 819 817 816 814
819 823 824 825 827 828 824 823 829 834 833 827 822 816 811 813 820 822 825 826 813 800 805 821 827 811 804 827 845 846 847 852 855 859 860 861 861 861 861 861 863 863 864 865 865 866 867 867 868 867 867 867 866 865 864 864 864 864 863 862 861 859 858 856 855 853 852 850 848 846 843 841 840 838 836 834 832 830 828 826 824 822 820 818 816 814
811 816 825 827 829 831 823 816 820 827 828 822 819 816 811 811 812 807 807 816 809 799 811 825 820 810 818 840 851 849 851 854 856 859 861 861 861 861 862 862 864 865 865 865 866 867 868 868 869 869 869 869 868 868 867 867 866 865 864 862 861 860 858 857 855 853 851 848 846 844 843 842 840 839 837 835 834 832 830 828 825 823 820 817 815 813
814 814 822 820 823 831 826 817 816 818 819 820 819 818 816 818 818 809 807 818 812 802 817 827 816 811 828 848 856 854 854 856 858 861 860 861 862 862 863 864 865 866 867 867 868 868 869 870 871 871 871 871 870 870 869 867 866 865 864 863 861 860 858 856 854 852 849 847 846 845 844 842 841 839 838 836 835 833 831 829 826 823 821 818 815 812
826 815 816 816 820 829 827 824 826 824 822 827 829 826 821 820 821 818 812 812 808 809 819 819 811 817 831 848 859 859 858 859 861 862 863 863 864 864 865 866 866 868 868 868 869 870 871 872 872 872 872 871 871 870 869 867 866 865 864 863 861 859 857 855 853 851 849 848 847 846 844 843 841 840 838 837 835 833 830 828 825 823 820 817 814 811
836 822 819 827 832 831 828 832 837 828 822 832 837 828 823 823 822 822 823 828 832 829 825 820 828 846 852 855 862 862 860 863 863 864 866 866 866 866 867 867 868 869 869 870 870 871 872 873 873 873 872 872 871 870 868 867 866 865 864 862 861 859 858 856 855 853 851 850 848 846 844 843 841 839 838 836 834 831 829 826 824 821 818 816 813 809
840 826 819 828 834 834 835 836 837 830 822 828 833 826 828 835 830 825 832 845 847 835 825 827 843 860 860 856 861 863 862 865 865 866 867 867 868 868 868 869 869 869 870 870 871 872 873 873 873 873 873 872 871 870 869 868 867 865 864 862 861 860 859 858 856 854 851 849 847 845 844 842 840 838 836 834 831 829 827 825 822 819 817 814 811 807
851 836 824 830 830 831 842 840 835 839 835 828 829 829 833 837 833 832 836 837 835 830 823 829 848 858 852 850 860 864 863 865 866 866 868 869 869 869 869 870 869 870 871 870 871 873 873 873 873 873 873 872 871 871 870 868 867 866 865 864 863 861 860 858 856 853 851 848 846 844 843 841 839 837 835 833 830 827 825 823 820 818 815 812 809 806
858 844 832 838 835 831 839 836 829 838 841 835 835 835 835 834 833 837 840 834 835 836 828 833 851 854 844 847 861 864 862 866 867 867 870 871 871 871 870 870 869 869 870 870 872 873 873 873 873 873 873 872 872 871 870 869 868 866 865 864 863 861 859 857 855 852 850 848 845 843 842 840 838 836 834 831 828 826 823 821 818 816 813 810 807 804
858 850 837 838 839 833 830 830 830 836 840 839 838 837 838 840 840 841 843 841 841 838 833 834 835 835 844 854 858 860 862 866 868 868 871 873 873 872 871 870 869 869 870 871 872 873 873 873 873 873 873 873 873 872 870 869 868 866 865 863 862 860 858 856 853 851 848 846 844 842 840 838 836 834 831 828 826 824 821 819 816 813 810 807 804 801
858 856 846 837 838 835 830 836 843 843 844 843 839 839 841 843 843 844 846 847 845 838 840 842 828 830 855 860 854 861 867 868 870 870 872 873 873 872 870 870 869 869 870 871 872 873 873 873 874 874 874 873 873 872 870 869 867 866 864 862 861 858 856 854 852 849 847 844 842 840 838 836 834 831 829 826 824 822 819 817 814 810 807 804 801 798
862 862 860 851 846 839 835 845 851 848 849 848 843 844 849 849 847 849 848 851 853 844 843 846 833 838 861 861 858 867 868 869 873 872 872 873 873 872 871 870 870 870 871 872 873 873 873 874 874 874 874 873 872 870 869 868 866 865 863 862 860 858 856 854 851 848 846 843 840 838 836 834 832 829 827 824 822 820 817 814 811 808 805 802 799 796
868 870 870 861 853 843 842 852 858 855 851 848 847 849 853 853 853 854 849 848 853 849 847 849 841 848 865 865 864 869 870 873 874 872 874 874 872 873 871 870 870 870 872 873 874 874 874 874 874 873 873 872 871 870 868 867 866 865 863 861 859 857 855 853 850 847 844 841 839 837 835 833 830 828 825 822 820 817 815 812 809 807 803 800 797 794
868 871 870 861 852 844 844 851 856 854 849 848 852 856 859 859 858 858 854 853 854 848 846 847 843 853 868 868 869 872 872 874 873 873 875 873 872 872 870 869 871 872 874 874 874 874 874 874 874 873 873 872 871 870 868 868 866 865 863 861 859 857 854 852 848 845 843 840 838 836 834 831 828 826 823 820 818 815 813 810 807 804 801 797 794 791
865 866 868 865 859 850 846 849 850 850 853 855 857 862 866 868 867 863 861 862 857 848 845 846 845 857 872 872 871 873 872 873 873 873 874 873 872 871 869 870 872 873 874 874 874 874 874 874 874 874 873 872 871 870 869 868 866 864 863 860 858 856 853 851 848 845 842 839 837 835 832 830 827 824 822 819 817 814 811 808 805 802 798 795 791 788
869 870 870 870 872 870 865 861 858 859 864 864 865 871 874 876 876 870 861 858 858 854 854 856 857 863 872 874 873 873 873 874 873 873 873 873 872 870 870 871 872 874 875 874 875 874 874 875 874 874 874 873 871 870 868 867 865 864 862 860 858 856 853 850 847 844 842 839 836 833 831 828 826 823 821 818 815 812 809 805 802 799 795 792 788 785
873 874 876 874 875 876 872 867 866 870 872 871 875 880 879 879 879 872 864 866 870 866 861 864 871 869 866 870 873 873 873 874 873 874 874 873 872 870 870 871 873 874 875 875 875 875 875 875 874 874 873 872 871 870 868 867 865 863 861 859 857 855 852 850 847 844 841 838 835 832 829 827 824 821 819 815 812 809 806 803 799 796 793 789 786 783
872 872 881 884 876 872 873 872 873 876 877 881 887 886 883 881 876 872 874 878 879 873 863 866 876 874 866 869 874 873 874 875 875 874 873 873 872 870 870 871 873 874 875 876 875 875 875 875 873 873 872 871 870 868 867 865 863 862 860 858 856 854 851 849 845 842 839 836 833 830 828 825 822 819 816 813 810 807 803 800 797 793 790 787 785 781
876 874 884 889 880 874 876 877 877 878 879 887 892 889 886 885 880 880 882 881 882 880 872 870 876 876 872 874 876 875 875 876 875 874 873 873 871 870 871 873 874 875 876 876 875 875 875 874 873 872 871 870 868 866 865 864 862 861 859 857 855 852 849 846 843 840 837 834 831 829 826 823 820 817 814 811 808 804 801 798 794 791 788 785 782 779
878 875 886 894 884 874 873 875 879 879 879 887 894 892 889 888 887 888 886 882 884 881 875 877 880 877 875 877 877 876 875 875 874 872 873 873 871 871 872 873 875 876 876 876 875 875 874 873 872 871 869 868 867 865 864 862 860 859 857 855 853 850 847 844 841 838 836 833 830 827 824 821 819 815 812 809 806 802 799 796 793 789 786 782 779 775
877 877 888 894 884 873 871 874 876 877 878 887 894 894 892 890 889 890 887 885 885 879 876 881 880 874 875 878 877 876 874 874 873 872 873 873 872 872 873 874 876 875 876 876 875 874 873 872 871 870 869 867 866 864 862 861 859 857 855 854 851 848 846 843 840 837 834 831 828 826 823 820 817 813 810 807 804 800 797 793 790 786 782 778 774 770
883 884 887 890 883 872 872 875 875 877 879 885 894 898 896 894 892 890 888 886 886 884 882 881 876 874 877 877 875 874 874 873 873 873 874 872 872 873 874 875 876 876 876 876 875 874 873 871 870 869 868 866 865 863 861 860 858 856 854 852 849 847 844 841 839 835 832 830 827 824 821 817 814 811 807 805 801 798 794 790 786 782 778 774 770 766
895 889 885 892 886 872 874 880 875 873 873 880 896 903 898 895 893 889 887 884 884 886 884 879 876 877 879 877 876 875 874 873 873 873 873 872 872 874 875 875 876 877 876 875 874 873 871 870 869 868 866 865 864 862 861 859 857 855 853 850 847 845 842 839 837 834 831 828 825 821 819 815 812 808 805 802 799 794 791 786 782 778 775 771 767 763
901 892 890 899 890 874 878 881 871 869 875 883 895 900 896 894 892 889 887 883 882 884 884 882 880 880 880 880 879 878 875 873 874 873 873 872 873 875 875 875 876 876 875 874 873 872 871 870 868 867 866 864 863 861 859 857 856 853 851 849 846 843 840 838 835 832 829 826 823 820 817 813 810 806 802 799 795 791 788 784 780 776 773 769 765 761
894 891 894 902 896 884 883 883 875 873 880 888 892 893 892 890 888 887 884 880 883 886 885 885 883 881 882 881 880 879 876 873 873 872 871 872 874 875 875 874 874 875 874 873 872 871 870 869 867 866 864 863 861 860 858 856 854 852 849 847 844 841 839 836 833 830 828 824 821 818 815 811 807 803 799 796 792 789 785 781 778 774 770 767 763 760
890 892 894 897 896 889 887 889 886 882 884 890 890 889 890 887 886 888 881 875 881 887 886 886 884 881 882 881 880 878 875 872 872 871 871 873 873 874 874 874 874 874 873 872 872 871 869 867 866 864 863 861 860 858 856 854 852 850 847 845 842 839 837 834 831 829 826 823 819 816 813 809 805 801 797 794 790 787 783 779 776 772 768 764 760 757
892 893 892 892 894 893 890 890 887 882 884 889 889 889 892 891 891 894 887 878 881 886 885 885 883 881 881 880 879 877 874 871 870 869 871 873 873 873 874 873 873 873 872 872 870 869 868 866 864 863 861 860 858 856 854 852 850 847 845 842 840 838 835 833 830 827 824 821 817 814 811 808 804 799 796 792 789 784 780 777 773 770 767 763 757 753
894 893 891 890 892 896 894 893 892 886 880 883 887 890 892 891 890 894 892 883 882 885 884 883 882 881 880 879 878 876 873 871 869 867 870 872 872 872 873 872 872 872 871 870 869 867 866 864 863 861 860 858 856 854 852 850 848 846 843 840 838 836 833 831 828 825 822 819 816 813 809 806 803 799 794 791 787 783 779 775 771 767 765 761 756 751
895 899 898 892 893 900 901 898 898 890 878 879 886 888 890 890 889 892 890 881 882 885 882 880 882 880 879 879 877 875 874 872 867 866 870 872 871 871 871 871 871 870 869 868 867 865 864 863 861 860 858 856 854 852 850 848 846 844 841 839 836 833 831 828 825 823 820 816 813 811 807 804 800 797 793 789 785 781 777 773 769 765 762 758 754 749
895 899 899 893 896 905 906 900 897 888 877 880 887 888 889 889 888 893 887 875 878 885 881 879 882 880 879 879 876 875 876 872 867 866 869 870 870 870 870 869 869 868 867 866 865 864 863 861 860 858 856 854 852 850 848 846 844 841 839 836 834 831 828 825 823 820 817 814 811 808 804 801 797 794 791 787 782 779 775 771 767 762 758 755 751 746
905 910 912 906 902 905 906 902 898 889 880 883 888 887 887 886 888 893 887 876 878 881 878 879 880 878 878 878 876 875 874 871 869 868 867 868 869 868 868 868 867 866 865 864 863 863 861 859 858 856 854 852 850 848 846 844 841 839 836 834 831 829 826 823 820 818 814 811 808 805 802 799 795 792 788 785 781 777 772 769 766 761 757 752 748 744
910 913 916 911 904 907 911 907 899 889 884 887 888 884 885 888 890 888 882 878 880 879 876 878 878 876 876 876 875 874 872 870 870 869 867 868 868 867 866 866 865 865 864 863 862 860 859 857 856 853 851 850 848 845 843 841 839 836 834 832 829 827 824 822 818 815 812 809 806 803 800 797 794 790 786 783 780 775 771 767 764 760 756 751 747 742
909 907 906 907 907 910 912 907 896 886 884 887 887 884 886 889 887 883 880 880 880 877 876 876 875 875 875 874 873 872 871 870 870 868 867 867 866 866 866 864 864 863 861 861 860 858 857 855 853 851 849 847 845 843 841 839 836 834 832 829 827 825 822 819 816 813 810 807 804 801 798 795 791 788 785 782 779 775 770 766 762 758 754 750 746 741
911 907 903 907 909 907 904 897 887 880 881 885 886 884 885 884 882 882 882 881 878 877 876 875 874 874 874 872 872 871 870 869 868 866 866 866 865 865 864 863 862 861 860 859 858 856 855 852 850 849 846 844 843 841 839 837 834 832 830 827 825 823 819 817 814 811 808 805 802 798 796 793 789 786 783 780 777 773 769 765 760 756 752 749 745 740
904 903 901 903 903 900 896 888 880 878 880 883 884 883 882 882 882 883 883 880 878 876 875 875 873 872 872 871 871 870 868 868 867 866 865 864 864 864 863 862 861 859 858 857 855 854 853 850 848 846 844 842 841 839 837 836 833 830 827 825 823 820 817 814 812 809 805 802 799 796 793 790 787 784 781 778 775 772 768 763 759 755 750 747 743 739
902 903 904 904 899 896 890 882 881 882 880 880 882 881 881 881 881 881 881 879 877 875 874 874 872 871 871 871 870 869 867 866 865 864 864 863 863 862 861 860 859 858 857 855 853 852 851 848 846 844 842 839 838 837 835 833 831 828 825 823 821 819 816 813 810 806 803 800 797 794 791 787 784 781 778 776 774 771 767 763 760 755 750 746 743 738
903 903 903 902 899 897 889 879 879 881 879 879 880 879 879 880 879 880 879 877 875 875 873 873 872 871 871 870 869 868 866 865 864 863 862 862 861 860 860 858 857 856 855 853 851 850 848 846 844 842 840 837 836 834 832 830 828 826 823 821 819 817 814 811 808 804 801 798 795 792 788 785 782 778 776 773 771 768 765 762 759 755 751 746 742 738
899 902 901 899 897 896 887 878 879 880 877 878 878 876 878 879 877 876 876 875 874 873 872 871 871 870 870 869 868 866 864 863 863 861 860 860 859 858 858 857 855 854 852 851 850 848 846 844 842 840 838 836 833 832 830 827 825 824 821 819 817 814 811 809 806 802 799 796 793 790 787 784 780 777 774 771 768 766 763 760 756 753 750 747 743 739
899 900 898 896 896 894 887 880 881 879 874 874 876 877 877 877 875 874 874 873 872 872 870 870 869 869 869 867 866 865 863 861 861 860 859 858 858 857 856 854 853 852 850 848 847 846 844 842 840 838 836 833 831 829 827 825 823 821 819 816 814 812 809 806 803 800 796 793 791 788 785 782 779 776 773 770 766 764 762 759 756 752 748 745 743 739
899 895 894 896 894 889 884 881 882 882 878 874 874 875 875 875 874 873 872 871 871 870 869 868 867 867 867 865 864 863 862 860 859 858 857 856 856 855 853 852 851 849 847 846 845 843 842 840 838 836 833 831 829 827 824 822 820 818 816 814 812 810 807 804 801 797 794 791 789 786 783 780 777 774 772 768 765 762 758 756 755 752 748 744 740 736
891 887 888 890 886 881 878 878 882 884 880 874 872 873 874 873 873 872 871 870 870 869 868 867 865 864 863 862 862 862 860 859 857 856 855 854 853 852 851 849 848 846 845 844 842 840 839 837 835 833 831 828 827 824 822 820 817 815 814 812 810 807 805 802 799 795 792 790 787 784 782 779 776 773 770 767 764 761 756 752 748 747 746 743 739 734